Weather History for Charlottetown, PE

Change the Weather History Date:

Monday, May 27, 2013

  Actual Average Record
Temperature  
Mean Temperature 48 °F -  
Max Temperature 52 °F 66 °F 78 °F (2011)
Min Temperature 44 °F 48 °F 35 °F (1997)
Degree Days  
Heating Degree Days 17    
Moisture  
Dew Point 44 °F    
Average Humidity 87    
Maximum Humidity 100    
Minimum Humidity 66    
Precipitation  
Precipitation 0.03 in 0.12 in - ()
Sea Level Pressure  
Sea Level Pressure 29.89 in    
Wind  
Wind Speed 10 mph ()    
Max Wind Speed 17 mph    
Max Gust Speed 23 mph    
Visibility 13.5 miles    
Events Rain    
Averages and records for this station are not official NWS values.
T = Trace of Precipitation, MM = Missing Value Source: Averaged Metar Reports

Daily Weather History Graph

Daily Weather History Graph

Search for Another Location

Airport:

Trip Planner

Search our weather history database for the weather conditions in past years. The results will help you decide how hot, cold, wet, or windy it might be!

Date:

Astronomy

May. 27, 2013 Rise Set
Actual Time 5:27 AM ADT 8:52 PM ADT
Civil Twilight 4:50 AM ADT 9:29 PM ADT
Nautical Twilight 4:01 AM ADT 10:18 PM ADT
Astronomical Twilight 2:58 AM ADT 11:22 PM ADT
Moon 11:23 PM ADT (5/27) 8:01 AM ADT (5/27)
Length of Visible Light 16h 39m
Length of Day
15h 25m
Waning Gibbous, 91% of the Moon is Illuminated
May 27
Waning Gibbous
May 31
Last Quarter
Jun 8
New
Jun 16
First Quarter
Jun 23
Full

Hourly Weather History & Observations

Time (ADT) Temp. Windchill Dew Point Humidity Pressure Visibility Wind Dir Wind Speed Gust Speed Precip Events Conditions
12:00 AM 48.2 °F - 42.8 °F 82% 29.82 in 15.0 mi South 15.0 mph - N/A   Mostly Cloudy
1:00 AM 46.4 °F 40.4 °F 42.8 °F 87% 29.82 in 15.0 mi South 13.8 mph - N/A   Mostly Cloudy
2:00 AM 46.4 °F 41.1 °F 42.8 °F 87% 29.81 in 15.0 mi South 11.5 mph - N/A   Mostly Cloudy
3:00 AM 47 °F - 44 °F 86% 29.80 in 15 mi South 11.5 mph - -   Partly Cloudy
3:00 AM 46.4 °F 41.5 °F 44.6 °F 93% 29.80 in 15.0 mi South 10.4 mph - N/A   Overcast
3:50 AM 46.4 °F 41.9 °F 44.6 °F 93% 29.80 in 15.0 mi South 9.2 mph - N/A   Overcast
4:00 AM 46.4 °F 40.7 °F 44.6 °F 93% 29.80 in 50.0 mi South 12.7 mph - N/A   Overcast
5:00 AM 46.4 °F 41.1 °F 46.4 °F 100% 29.80 in 15.0 mi SSW 11.5 mph - N/A   Overcast
5:34 AM 46.4 °F 41.1 °F 44.6 °F 93% 29.80 in 15.0 mi SSW 11.5 mph 20.7 mph N/A   Mostly Cloudy
6:00 AM 46.4 °F 40.4 °F 44.6 °F 93% 29.81 in 15.0 mi SW 13.8 mph - N/A   Overcast
6:39 AM 46.4 °F 40.7 °F 44.6 °F 93% 29.82 in 15.0 mi SW 12.7 mph 21.9 mph N/A   Overcast
7:00 AM 46.4 °F 40.4 °F 44.6 °F 93% 29.83 in 15.0 mi SW 13.8 mph 23.0 mph N/A   Overcast
8:00 AM 48.2 °F - 44.6 °F 87% 29.83 in 15.0 mi SW 11.5 mph 20.7 mph N/A   Mostly Cloudy
9:00 AM 48 °F - 44 °F 83% 29.86 in 15 mi SW 13.8 mph - -   Mostly Cloudy
9:00 AM 48.2 °F - 44.6 °F 87% 29.85 in 15.0 mi SW 13.8 mph 21.9 mph N/A   Mostly Cloudy
10:00 AM 48.2 °F - 44.6 °F 87% 29.87 in 15.0 mi SSW 17.3 mph - N/A   Overcast
10:29 AM 48.2 °F - 44.6 °F 87% 29.87 in 15.0 mi SW 12.7 mph 20.7 mph N/A Rain Light Rain Showers
11:00 AM 48.2 °F - 46.4 °F 93% 29.87 in 12.0 mi SW 11.5 mph 21.9 mph N/A Rain Light Rain Showers
12:00 PM 50.0 °F - 44.6 °F 82% 29.88 in 15.0 mi WSW 12.7 mph 23.0 mph N/A   Mostly Cloudy
1:00 PM 51.8 °F - 42.8 °F 71% 29.88 in 15.0 mi WSW 10.4 mph - N/A   Mostly Cloudy
2:00 PM 50.0 °F - 42.8 °F 76% 29.89 in 15.0 mi SW 12.7 mph - N/A   Mostly Cloudy
3:00 PM 51 °F - 43 °F 66% 29.90 in 15 mi WSW 9.2 mph - -   Overcast
3:00 PM 51.8 °F - 42.8 °F 71% 29.90 in 15.0 mi WSW 10.4 mph - N/A   Overcast
4:00 PM 51.8 °F - 42.8 °F 71% 29.91 in 15.0 mi West 6.9 mph - N/A   Overcast
4:44 PM 51.8 °F - 44.6 °F 76% 29.92 in 15.0 mi NW 6.9 mph - N/A Rain Light Rain Showers
5:00 PM 50.0 °F - 44.6 °F 82% 29.92 in 15.0 mi North 5.8 mph - N/A Rain Light Rain Showers
6:00 PM 48.2 °F - 46.4 °F 93% 29.94 in 15.0 mi North 6.9 mph - N/A Rain Light Rain Showers
7:00 PM 48.2 °F - 44.6 °F 87% 29.95 in 15.0 mi NNW 5.8 mph - N/A Rain Light Rain Showers
8:00 PM 48.2 °F - 44.6 °F 87% 29.96 in 15.0 mi WNW 4.6 mph - N/A Rain Light Rain Showers
9:00 PM 47 °F - 45 °F 90% 29.99 in 15 mi NNW 4.6 mph - - Rain Light Rain Showers
9:00 PM 46.4 °F 43.5 °F 44.6 °F 93% 29.98 in 15.0 mi NNW 5.8 mph - N/A Rain Light Rain Showers
9:54 PM 46.4 °F 42.9 °F 44.6 °F 93% 30.01 in 6.0 mi NW 6.9 mph - N/A Rain Heavy Rain Showers
10:00 PM 46.4 °F 44.3 °F 44.6 °F 93% 30.01 in 5.0 mi NNW 4.6 mph - N/A Rain Light Rain Showers
10:25 PM 44.6 °F 43.1 °F 44.6 °F 100% 30.02 in 5.0 mi NNW 3.5 mph - N/A Rain Light Rain Showers
11:00 PM 44.6 °F 43.1 °F 44.6 °F 100% 30.02 in 5.0 mi North 3.5 mph - N/A Rain Light Rain Showers
11:36 PM 44.6 °F 42.2 °F 44.6 °F 100% 30.04 in 3.0 mi North 4.6 mph - N/A   Light Drizzle